Regional Weather Roundup
Issued by NWS

Home | Current Version | Previous Version | Text Only | Print | Product List | Glossary Off
Versions: 1 2 3 4 5 6 7 8 9 10 11 12 13 14 15 16 17 18 19 20 21 22 23 24 25 26 27 28 29 30 31 32 33 34 35 36 37 38 39 40 41 42 43 44 45 46 47 48 49 50

000
ASUS43 KLSX 241110
RWRMO

WEATHER SUMMARY FOR MISSOURI
NATIONAL WEATHER SERVICE SPRINGFIELD MO
600 AM CDT WED AUG 24 2016

NOTE: "FAIR" INDICATES FEW OR NO CLOUDS BELOW 12,000 FEET WITH NO
       SIGNIFICANT WEATHER AND/OR OBSTRUCTIONS TO VISIBILITY.
       CURRENT SKY AND/OR WEATHER CONDITIONS ARE NOT AVAILABLE FOR
       CHILLICOTHE AND FARMINGTON.

MOZ001>031-035>038-043-044-053-054-241200-
...NORTHERN AND WESTERN MISSOURI...

CITY           SKY/WX    TMP DP  RH WIND       PRES   REMARKS
KANSAS CTY INT CLOUDY    67  64  90 S14       29.96F
KANSAS C DTWN  CLOUDY    69  66  90 E6        29.99F
LEE`S SUMMIT   CLOUDY    69  67  93 E7        30.03R
ST JOSEPH      CLOUDY    67  65  93 SW7       29.91S
CHILLICOTHE      N/A     70  67  90 S13       29.91F
KIRKSVILLE     MOCLDY    71  68  90 S16G24    29.89F

$$
MOZ066>068-077>081-088>096-101>105-241200-
...SOUTHWEST MISSOURI...

CITY           SKY/WX    TMP DP  RH WIND       PRES   REMARKS
SPRINGFIELD    CLEAR     74  69  85 S13       30.07R
JOPLIN         CLEAR     77  71  82 S13G39    30.04R
BRANSON        CLEAR     75  72  88 S6        30.11R

$$
MOZ032>034-039>042-045>050-055>058-069>072-241200-
...CENTRAL MISSOURI...

CITY           SKY/WX    TMP DP  RH WIND       PRES   REMARKS
COLUMBIA       PTCLDY    75  71  87 S13       30.00F
JEFFERSON CITY MOCLDY    77  71  82 S7        30.01S
ROLLA          MOCLDY    74  71  91 S9        30.05S
SEDALIA        MOCLDY    79  71  76 SW13G25   30.01R
WHITEMAN AFB   MOCLDY    78  73  85 W15       30.00R
OSAGE BEACH    CLEAR     76  71  85 S15G22    30.03F

$$
MOZ051-052-059>065-241200-
...EAST CENTRAL MISSOURI...

CITY           SKY/WX    TMP DP  RH WIND       PRES   REMARKS
ST LOUIS INTL  CLOUDY    76  72  87 S9        30.04F
SPIRIT OF STL  MOCLDY    76  74  93 CALM      30.02S
ST CHARLES     CLOUDY    75  74  96 S10       30.01F

$$
MOZ072>076-082>087-097>100-106>115-241200-
...SOUTH CENTRAL AND SOUTHEAST MISSOURI...

CITY           SKY/WX    TMP DP  RH WIND       PRES   REMARKS
CAPE GIRARDEAU MOCLDY    74  72  93 S8        30.12R
FARMINGTON     MOCLDY    74  72  93 S8        30.11R
POPLAR BLUFF   CLEAR     73  72  96 CALM      30.11S
WEST PLAINS    PTCLDY    74  71  91 S7        30.14R

$$




USA.gov is the U.S. government's official web portal to all federal, state and local government web resources and services.